User: anonymous
Location: Seminole
(32.7190°N, 102.6440°W)
Time: 15:51:18
(UTC-05:00)
Language:

Meteor 2-10 - Orbit

View from above orbital plane
View from above orbital plane
View from above satellite
View from above satellite

Ground track
Ground track

The orbit data is extracted from the following two-line orbital elements,

1 14452U 83109A   14210.08332794  .00000159  00000-0  58515-4 0  5563
2 14452 081.1608 060.1629 0090691 197.7017 162.0998 14.26243317598755
Epoch (UTC): 29 July 2014 01:59:59
Eccentricity: 0.0090691
inclination: 81.1608°
perigee height: 739 km
apogee height: 869 km
right ascension of ascending node: 60.1629°
argument of perigee: 197.7017°
revolutions per day: 14.26243317
mean anomaly at epoch: 162.0998°
orbit number at epoch: 59875

The dashed part of the orbit path shows where the satellite is in the earth's shadow,  

DLR